Regional Weather Roundup
Issued by NWS

Home | Current Version | Previous Version | Graphics & Text | Print | Product List | Glossary On
Versions: 1 2 3 4 5 6 7 8 9 10 11 12 13 14 15 16 17 18 19 20 21 22 23 24 25 26 27 28 29 30 31 32 33 34 35 36 37 38 39 40 41 42 43 44 45 46 47 48 49 50
000
ASUS43 KMPX 270710
RWRMN
WEATHER ROUNDUP FOR MINNESOTA
NATIONAL WEATHER SERVICE TWIN CITIES/CHANHASSEN MN
200 AM CDT THU JUL 27 2017


NOTE: "FAIR" INDICATES FEW OR NO CLOUDS BELOW 12,000 FEET WITH NO
SIGNIFICANT WEATHER AND/OR OBSTRUCTIONS TO VISIBILITY. N/A MEANS
CURRENT SKY AND/OR WEATHER CONDITIONS ARE NOT AVAILABLE.

MNZ060>063-068>070-270800-
   Twin Cities Metro

CITY           SKY/WX    TMP DP  RH WIND       PRES   REMARKS
TWIN CITIES    CLEAR     70  63  78 N5        30.04S
ST PAUL        CLEAR     67  64  90 CALM      30.03S
CRYSTAL        CLEAR     66  59  78 NW5       30.03S
BLAINE         CLEAR     68  63  83 NW3       30.04S
LAKEVILLE      CLEAR     64  64 100 CALM      30.04S
EDEN PRAIRIE   CLEAR     69  63  81 N6        30.03S
SOUTH ST PAUL  CLEAR     69  63  81 CALM      30.03S
LAKE ELMO      FAIR      63  63 100 CALM      30.05R
$$
MNZ001>005-007-008-013>017-022>024-027-028-270800-
   Northwest Minnesota

CITY           SKY/WX    TMP DP  RH WIND       PRES   REMARKS
BEMIDJI        CLEAR     60  57  89 NW5       30.11R
HALLOCK        CLEAR     61  59  94 CALM      30.10R
ROSEAU         PTCLDY    66  61  82 W6        30.09S
WARROAD        CLEAR     61  57  88 CALM      30.09S
THIEF RVR FALL CLEAR     63  58  83 N5        30.12R
CROOKSTON      CLEAR     61  59  94 NW3       30.11S
FOSSTON        CLEAR     55  54  94 CALM      30.12S
DETROIT LAKES  CLEAR     63  59  88 N3        30.13R
MOORHEAD       CLEAR     63  59  88 CALM      30.11S
PARK RAPIDS    CLEAR     60  56  86 NW3       30.11R
MAHNOMEN       FAIR      58  56  94 CALM      30.12R
$$
MNZ006-009>011-018-025>026-270800-
   North Central Minnesota

CITY           SKY/WX    TMP DP  RH WIND       PRES   REMARKS
BAUDETTE       CLEAR     59  59 100 W3        30.08R
FLAG ISLAND    CLEAR     66  61  82 NW5       30.07R
INTL FALLS     FOG       53  51  93 CALM      30.06S VSB 1
WASKISH        CLEAR     64  59  82 CALM      30.09R
BIG FORK       CLEAR     54  54 100 CALM      30.09R FOG
LONGVILLE      CLEAR     57  55  94 CALM      30.10R
GRAND RAPIDS   CLEAR     59  58  96 CALM      30.10S
CRANE LAKE     CLEAR     54  52  94 CALM      30.08R
ORR            MOCLDY    57  54  88 CALM      30.05S
COOK             N/A     57  55  94 CALM      30.08R
WALKER         FAIR      60  58  93 CALM      30.10R
$$
MNZ012-019>021-037-270800-
   Northeast Minnesota

CITY           SKY/WX    TMP DP  RH WIND       PRES   REMARKS
DULUTH         CLEAR     63  59  87 NW7       30.06S
ELY            CLEAR     55  55 100 CALM      30.07R
HIBBING        CLEAR     54  54 100 CALM      30.07S
EVELETH        CLEAR     57  54  91 CALM      30.08S
DULUTH HARBOR  CLEAR     66  63  88 N5        30.04R
TWO HARBORS    CLEAR     63  57  82 CALM      30.03R
SILVER BAY     CLEAR     61  57  88 CALM      30.03R
GRAND MARAIS     N/A     67  59  75 CALM      30.01R
G MARAIS ARPRT CLEAR     61  54  77 N9        30.06S
$$
MNZ029>031-032-039>041-046>048-054>057-064-270800-
   West Central Minnesota

CITY           SKY/WX    TMP DP  RH WIND       PRES   REMARKS
FERGUS FALLS   CLEAR     64  59  82 N5        30.10S
WHEATON        CLEAR     63  61  94 CALM      30.13R
MORRIS         CLEAR     64  61  88 N5        30.09R
ALEXANDRIA     CLEAR     66  62  87 N6        30.11S
ELBOW LAKE     FOG       65  62  91 CALM      30.11S VSB 3/4
WADENA         CLEAR     61  61 100 NW3       30.11R
GLENWOOD       CLEAR     64  61  88 N7        30.11R
APPLETON       CLEAR     63  59  88 CALM      30.09R
BENSON         CLEAR     63  61  94 CALM      30.10S
ORTONVILLE     CLEAR     64  61  88 MISG      30.10R
MADISON        CLEAR     64  64 100 NW5       30.10R
WILLMAR        FAIR      66  63  88 CALM      30.10R
$$
MNZ033>034-036-042>043-049>051-058-059-270800-
   Central Minnesota

CITY           SKY/WX    TMP DP  RH WIND       PRES   REMARKS
ST CLOUD       CLEAR     62  61  96 N3        30.07R
SAUK CENTRE    FAIR      64  60  89 N6        30.09S
PAYNESVILLE    CLEAR     65  62  89 CALM      30.09S
AITKIN         CLEAR     55  54  94 CALM      30.07S FOG
PINE RIVER     CLEAR     57  55  94 CALM      30.13R
BRAINERD       CLEAR     60  59  96 CALM      30.09R
STAPLES        CLEAR     61  57  88 CALM      30.10S
LONG PRAIRIE   FAIR      63  59  88 NW3       30.10S
LITTLE FALLS   CLEAR     59  55  88 CALM      30.09R FOG
LITCHFIELD     CLEAR     66  64  94 NW5       30.08S
BUFFALO        CLEAR     67  61  80 CALM      30.07R
MAPLE LAKE     CLEAR     64  63  95 NW3       30.07S
HUTCHINSON     CLEAR     67  64  89 N5        30.08R
$$
MNZ037-044-045-052-053-270800-
   East Central Minnesota

CITY           SKY/WX    TMP DP  RH WIND       PRES   REMARKS
PRINCETON      CLEAR     63  61  94 CALM      30.06S
MORA           CLEAR     63  59  88 CALM      30.08R
CAMBRIDGE      CLEAR     64  57  77 NW3       30.04R
RUSH CITY      PTCLDY    61  59  93 CALM      30.06R
MOOSE LAKE     CLEAR     61  57  88 CALM      30.05R
HINCKLEY       FAIR      64  61  88 N6        30.06R
CLOQUET        CLEAR     61  55  82 NW3       30.07R
MCGREGOR       CLEAR     61  57  88 CALM      30.08R
$$
MNZ071>073-080-081-089-090-097-098-270800-
   Southwest Minnesota

CITY           SKY/WX    TMP DP  RH WIND       PRES   REMARKS
MONTEVIDEO     CLEAR     63  55  77 N3        30.09R
CANBY          CLEAR     63  61  93 CALM      30.12R
MARSHALL       CLEAR     62  60  93 W3        30.10R
REDWOOD FALLS  CLEAR     67  61  81 NW7       30.07R
OLIVIA         CLEAR     63  59  88 NW5       30.07R
PIPESTONE      CLEAR     64  61  88 CALM      30.11S
WINDOM         CLEAR     63  61  94 N3        30.08S
WORTHINGTON    CLEAR     61  59  93 N8        30.09
JACKSON        CLEAR     63  59  88 CALM      30.08S
TRACY          CLEAR     65  62  90 NW6       30.10S
SLAYTON        HVY RAIN  61  54  77 CALM      30.11S
$$
MNZ065>067-074>077-082>085-091>093-270800-
   South Central Minnesota

CITY           SKY/WX    TMP DP  RH WIND       PRES   REMARKS
MANKATO        CLEAR     65  62  90 NW5       30.06R
NEW ULM        CLEAR     64  61  88 N6        30.06S
ST JAMES       CLEAR     63  61  94 NW5       30.08R
FAIRMONT       CLEAR     64  62  93 N6        30.06S
GLENCOE        CLEAR     66  65  94 NW5       30.06R
FARIBAULT      CLEAR     63  61  94 CALM      30.05R FOG
OWATONNA       FOG       61  61 100 CALM      30.05R VSB 1/4
WASECA         CLEAR     63  61  94 N3        30.06S
ALBERT LEA     CLEAR     66  63  88 CALM      30.05S
$$
MNZ078>079-086>088-094>096-270800-
   Southeast Minnesota

CITY           SKY/WX    TMP DP  RH WIND       PRES   REMARKS
ROCHESTER      CLEAR     63  63 100 NW7       30.04S
RED WING       CLEAR     64  61  88 CALM      30.02S
STANTON        CLEAR     62  61  95 CALM      30.03S FOG
DODGE CENTER   CLEAR     64  61  88 CALM      30.05R
WINONA         MOCLDY    68  66  94 NW3       30.01S FOG
AUSTIN         CLEAR     64  63  94 CALM      30.03F
PRESTON        CLEAR     64  61  89 N5        30.03S
$$
ABBREVIATIONS USED IN REMARKS
   TC - TEMPERATURES IN CELSIUS
  WCI - WIND CHILL INDEX
   HX - HEAT INDEX
  VSB - VISIBILITY
$$




USA.gov is the U.S. government's official web portal to all federal, state and local government web resources and services.